This is the latest recevied weather packets stored in our database for station/object VE7KNL-13. If no packets are shown the sender has not sent any weather packets the latest 10 day(s).
| Time | Temp. | Humidity | Pressure | Rain* | Wind** | Luminosity | Snow |
|---|---|---|---|---|---|---|---|
| 1778036417 | 17.78° C | 44% | 1006.5 hPa | 0 mm | - | - | - |
| 1778035217 | 19.44° C | 36% | 1006.4 hPa | 0 mm | - | - | - |
| 1778031017 | 23.89° C | 19% | 1006.1 hPa | 0 mm | - | - | - |
| 1778028616 | 24.44° C | 21% | 1006.2 hPa | 0 mm | - | - | - |
| 1778026216 | 25° C | 22% | 1006.3 hPa | 0 mm | - | - | - |
| 1778025057 | 25.56° C | 20% | 1006.5 hPa | 0 mm | - | - | - |
| 1778024416 | 26.11° C | 21% | 1006.7 hPa | 0 mm | - | - | - |
| 1778020216 | 25° C | 20% | 1007.4 hPa | 0 mm | - | - | - |
| 1778019016 | 25° C | 20% | 1007.6 hPa | 0 mm | - | - | - |
| 1778017837 | 24.44° C | 22% | 1007.8 hPa | 0 mm | - | - | - |
| 1778011818 | 23.33° C | 29% | 1009.1 hPa | 0 mm | - | - | - |
| 1778010618 | 22.78° C | 29% | 1009.4 hPa | 0 mm | - | - | - |
| 1778007018 | 22.22° C | 29% | 1009.8 hPa | 0 mm | - | - | - |
| 1778005817 | 21.67° C | 29% | 1010.1 hPa | 0 mm | - | - | - |
| 1778003438 | 20.56° C | 33% | 1010.4 hPa | 0 mm | - | - | - |
| 1777998617 | 17.78° C | 45% | 1010.8 hPa | 0 mm | - | - | - |
| 1777997417 | 16.67° C | 49% | 1011.1 hPa | 0 mm | - | - | - |
| 1777987217 | 4.44° C | 89% | 1010.7 hPa | 0 mm | - | - | - |
| 1777986657 | 4.44° C | 89% | 1010.5 hPa | 0 mm | - | - | - |
| 1777985417 | 4.44° C | 88% | 1010.3 hPa | 0 mm | - | - | - |
| 1777983017 | 4.44° C | 88% | 1010.1 hPa | 0 mm | - | - | - |
| 1777981257 | 5° C | 87% | 1010.1 hPa | 0 mm | - | - | - |
| 1777977016 | 5.56° C | 86% | 1009.6 hPa | 0 mm | - | - | - |
| 1777975837 | 5.56° C | 84% | 1009.2 hPa | 0 mm | - | - | - |
| 1777973416 | 6.67° C | 83% | 1009.3 hPa | 0 mm | - | - | - |
* Rain latest hour (hover to see other rain measurements)
** Current wind speed in m/s (hover to see current wind gust speed)